Погода в Веськове

Россия / Ярославская область     56°43′21″N   38°46′57″E
темп.,
°C
ветер,
м/с
пор.,
м/с
влажн.,
%
обл.,
%
осадки,
мм/ч
давл.,
гПа
погр.,
м
30 ноября, вт
вт3000:00+3в61397100 0.1 989517
03:00+4в71697100 2.3 981694
06:00+5в81694100 5.3 972860
09:00+5ю91793100 8.8 9681107
12:00+4ююз91780100 0.3 9711346
15:00+1ю8158698 0.4 9711363
18:00−1ююз71390100 0.3 9701030
21:00−1юз91693100 2.1 972915
1 декабря, ср
ср100:00−3зюз91690100 1.3 977973
03:00−4юз71390100 1.9 982997
06:00−4зюз71390100 1.5 984958
09:00−4зюз51093100 2.3 985925
12:00−4зюз4993100 1.3 987859
15:00−5з5993100 2.9 988785
18:00−5з5994100 1.1 989759
21:00−6з51093100 2.3 991689
2 декабря, чт
чт200:00−7з51091100 0.4 994654
03:00−8з41091100 0.6 996560
06:00−9з4994100 0.1 998389
09:00−10юз3795100 0.1 1000249
12:00−7юз3583100 0.0 1000345
15:00−6ююв3785100 0.0 1000414
18:00−5ююв4129279 0.8 999531
21:00−4ю4119496 1.1 997479
3 декабря, пт
пт300:00−2ююз41195100 0.3 997424
03:00+1юз4129685 0.6 997670
06:00+2юз51284100 0.1 998758
09:00−1зюз51385100 0.1 1001662
12:000юз51085100 0.0 1003800
15:00−1ююз3887100 0.0 1004335
18:00−1ю2794100 0.1 1002300
21:00−1в2399100 2.3 1000149
4 декабря, сб
сб400:00−1ссв2399100 3.2 997185
03:00−2зсз3797100 4.8 997373
06:00−2з41094100 1.0 1000720
09:00−6зюз51291100 1.1 1003557
12:00−6зюз5138725 0.0 1006604
15:00−6зюз51287100 0.0 1009688
18:00−7зюз5119198 0.0 1011546
21:00−7зюз4119373 0.1 1012353